Time,TemperatureF,DewpointF,PressureIn,WindDirection,WindDirectionDegrees,WindSpeedMPH,WindSpeedGustMPH,Humidity,HourlyPrecipIn,Conditions,Clouds,dailyrainin,SoftwareType,DateUTC
2013-04-08 00:02:00,64.0,58.0,29.80,SSE,153,1.0,5.0,80,0.00,,,0.00,,2013-04-08 05:02:00,
2013-04-08 00:12:00,64.0,58.0,29.80,SSE,153,1.0,5.0,80,0.00,,,0.00,,2013-04-08 05:12:00,
2013-04-08 00:22:00,64.0,58.0,29.80,SSE,153,1.0,5.0,80,0.00,,,0.00,,2013-04-08 05:22:00,
2013-04-08 00:32:00,64.0,58.0,29.80,SSW,203,0.0,3.0,80,0.00,,,0.00,,2013-04-08 05:32:00,
2013-04-08 00:42:00,64.0,58.0,29.80,SSW,203,0.0,3.0,80,0.00,,,0.00,,2013-04-08 05:42:00,
2013-04-08 00:52:00,64.0,58.0,29.80,SSE,162,2.0,5.0,80,0.00,,,0.00,,2013-04-08 05:52:00,
2013-04-08 01:02:00,64.0,58.0,29.79,South,169,1.0,5.0,80,0.00,,,0.00,,2013-04-08 06:02:00,
2013-04-08 01:12:00,64.0,58.0,29.79,South,169,1.0,5.0,80,0.00,,,0.00,,2013-04-08 06:12:00,
2013-04-08 01:22:00,64.0,58.0,29.79,SSE,166,0.0,4.0,80,0.00,,,0.00,,2013-04-08 06:22:00,
2013-04-08 01:32:00,64.0,57.0,29.79,South,176,1.0,6.0,79,0.00,,,0.00,,2013-04-08 06:32:00,
2013-04-08 01:42:00,64.0,57.0,29.79,South,176,1.0,6.0,79,0.00,,,0.00,,2013-04-08 06:42:00,
2013-04-08 01:52:00,64.0,57.0,29.78,SSE,147,1.0,6.0,79,0.00,,,0.00,,2013-04-08 06:52:00,
2013-04-08 02:02:00,64.0,57.0,29.78,East,79,1.0,9.0,79,0.00,,,0.00,,2013-04-08 07:02:00,
2013-04-08 02:12:00,64.0,57.0,29.78,East,79,1.0,9.0,79,0.00,,,0.00,,2013-04-08 07:12:00,
2013-04-08 02:22:00,64.0,57.0,29.77,SSE,162,2.0,9.0,79,0.00,,,0.00,,2013-04-08 07:22:00,
2013-04-08 02:33:00,64.0,57.0,29.77,SSE,162,2.0,9.0,79,0.00,,,0.00,,2013-04-08 07:33:00,
2013-04-08 02:42:00,64.0,57.0,29.77,SSE,162,2.0,9.0,79,0.00,,,0.00,,2013-04-08 07:42:00,
2013-04-08 02:52:00,64.0,58.0,29.74,SSW,200,1.0,6.0,80,0.00,,,0.00,,2013-04-08 07:52:00,
2013-04-08 03:02:00,64.0,58.0,29.74,East,94,1.0,8.0,80,0.00,,,0.00,,2013-04-08 08:02:00,
2013-04-08 03:12:00,64.0,58.0,29.74,East,94,1.0,8.0,80,0.00,,,0.00,,2013-04-08 08:12:00,
2013-04-08 03:22:00,64.0,58.0,29.74,East,94,1.0,8.0,80,0.00,,,0.00,,2013-04-08 08:22:00,
2013-04-08 03:32:00,64.0,58.0,29.73,SE,143,2.0,7.0,80,0.00,,,0.00,,2013-04-08 08:32:00,
2013-04-08 03:42:00,64.0,58.0,29.73,SSE,155,1.0,4.0,80,0.00,,,0.00,,2013-04-08 08:42:00,
2013-04-08 03:52:00,64.0,57.0,29.73,SSE,148,2.0,6.0,79,0.00,,,0.00,,2013-04-08 08:52:00,
2013-04-08 04:02:00,64.0,57.0,29.73,SW,214,2.0,7.0,79,0.00,,,0.00,,2013-04-08 09:02:00,
2013-04-08 04:12:00,64.0,57.0,29.73,East,84,1.0,5.0,79,0.00,,,0.00,,2013-04-08 09:12:00,
2013-04-08 04:22:00,64.0,57.0,29.73,East,84,1.0,5.0,79,0.00,,,0.00,,2013-04-08 09:22:00,
2013-04-08 04:33:00,64.0,57.0,29.73,East,94,1.0,4.0,79,0.00,,,0.00,,2013-04-08 09:33:00,
2013-04-08 04:43:00,64.0,57.0,29.73,East,94,1.0,4.0,79,0.00,,,0.00,,2013-04-08 09:43:00,
2013-04-08 04:53:00,64.0,57.0,29.73,SE,141,0.0,4.0,79,0.00,,,0.00,,2013-04-08 09:53:00,
2013-04-08 05:03:00,64.0,57.0,29.72,ESE,122,1.0,7.0,79,0.00,,,0.00,,2013-04-08 10:03:00,
2013-04-08 05:13:00,64.0,57.0,29.72,ESE,122,1.0,7.0,79,0.00,,,0.00,,2013-04-08 10:13:00,
2013-04-08 05:23:00,65.0,58.0,29.72,East,91,0.0,4.0,79,0.00,,,0.00,,2013-04-08 10:23:00,
2013-04-08 05:33:00,65.0,59.0,29.72,ESE,117,0.0,5.0,80,0.00,,,0.00,,2013-04-08 10:33:00,
2013-04-08 05:42:00,65.0,59.0,29.72,ESE,117,0.0,5.0,80,0.00,,,0.00,,2013-04-08 10:42:00,
2013-04-08 05:52:00,65.0,59.0,29.73,SSW,201,1.0,6.0,80,0.00,,,0.00,,2013-04-08 10:52:00,
2013-04-08 06:02:00,65.0,58.0,29.73,ESE,102,0.0,3.0,79,0.00,,,0.00,,2013-04-08 11:02:00,
2013-04-08 06:12:00,65.0,58.0,29.74,SE,138,1.0,4.0,79,0.00,,,0.00,,2013-04-08 11:12:00,
2013-04-08 06:22:00,65.0,58.0,29.74,SE,138,1.0,4.0,79,0.00,,,0.00,,2013-04-08 11:22:00,
2013-04-08 06:32:00,65.0,58.0,29.74,SSE,159,1.0,7.0,79,0.00,,,0.00,,2013-04-08 11:32:00,
2013-04-08 06:42:00,65.0,58.0,29.74,SSE,159,1.0,7.0,79,0.00,,,0.00,,2013-04-08 11:42:00,
2013-04-08 06:52:00,65.0,59.0,29.74,ESE,108,0.0,5.0,80,0.00,,,0.00,,2013-04-08 11:52:00,
2013-04-08 07:03:00,65.0,59.0,29.75,ESE,123,1.0,6.0,80,0.00,,,0.00,,2013-04-08 12:03:00,
2013-04-08 07:12:00,65.0,59.0,29.75,ESE,123,1.0,6.0,80,0.00,,,0.00,,2013-04-08 12:12:00,
2013-04-08 07:23:00,65.0,59.0,29.75,ESE,123,1.0,4.0,80,0.00,,,0.00,,2013-04-08 12:23:00,
2013-04-08 07:33:00,65.0,59.0,29.76,SSE,155,0.0,6.0,80,0.00,,,0.00,,2013-04-08 12:33:00,
2013-04-08 07:42:00,65.0,59.0,29.76,SSE,155,0.0,6.0,80,0.00,,,0.00,,2013-04-08 12:42:00,
2013-04-08 07:52:00,64.0,58.0,29.77,SE,131,2.0,7.0,80,0.00,,,0.00,,2013-04-08 12:52:00,
2013-04-08 08:03:00,64.0,58.0,29.77,SE,129,1.0,6.0,80,0.00,,,0.00,,2013-04-08 13:03:00,
2013-04-08 08:12:00,64.0,58.0,29.77,SE,129,1.0,6.0,80,0.00,,,0.00,,2013-04-08 13:12:00,
2013-04-08 08:22:00,64.0,58.0,29.77,ESE,103,2.0,6.0,80,0.00,,,0.00,,2013-04-08 13:22:00,
2013-04-08 08:32:00,64.0,58.0,29.78,ESE,102,1.0,7.0,80,0.00,,,0.00,,2013-04-08 13:32:00,
2013-04-08 08:42:00,64.0,58.0,29.78,ESE,102,1.0,7.0,80,0.00,,,0.00,,2013-04-08 13:42:00,
2013-04-08 08:52:00,64.0,58.0,29.78,SSE,149,3.0,8.0,80,0.00,,,0.00,,2013-04-08 13:52:00,
2013-04-08 09:02:00,64.0,58.0,29.78,SE,142,2.0,10.0,81,0.00,,,0.00,,2013-04-08 14:02:00,
2013-04-08 09:12:00,64.0,58.0,29.78,SE,142,2.0,10.0,81,0.00,,,0.00,,2013-04-08 14:12:00,
2013-04-08 09:22:00,64.0,58.0,29.78,East,87,4.0,10.0,81,0.00,,,0.00,,2013-04-08 14:22:00,
2013-04-08 09:32:00,64.0,58.0,29.78,SE,131,3.0,10.0,82,0.00,,,0.00,,2013-04-08 14:32:00,
2013-04-08 09:42:00,63.0,58.0,29.78,ENE,73,2.0,14.0,83,0.00,,,0.00,,2013-04-08 14:42:00,
2013-04-08 09:52:00,63.0,58.0,29.78,ENE,73,2.0,14.0,83,0.00,,,0.00,,2013-04-08 14:52:00,
2013-04-08 10:02:00,63.0,58.0,29.79,SSE,154,3.0,7.0,84,0.00,,,0.00,,2013-04-08 15:02:00,
2013-04-08 10:12:00,63.0,58.0,29.79,East,101,2.0,7.0,85,0.00,,,0.00,,2013-04-08 15:12:00,
2013-04-08 10:22:00,63.0,58.0,29.79,East,101,2.0,7.0,85,0.00,,,0.00,,2013-04-08 15:22:00,
2013-04-08 10:33:00,63.0,59.0,29.80,ESE,114,4.0,9.0,86,0.00,,,0.00,,2013-04-08 15:33:00,
2013-04-08 10:43:00,63.0,59.0,29.80,ESE,114,4.0,9.0,86,0.00,,,0.00,,2013-04-08 15:43:00,
2013-04-08 10:52:00,63.0,59.0,29.80,SE,128,2.0,6.0,87,0.00,,,0.00,,2013-04-08 15:52:00,
2013-04-08 11:03:00,62.0,59.0,29.81,SE,142,1.0,9.0,89,0.00,,,0.00,,2013-04-08 16:03:00,
2013-04-08 11:13:00,62.0,59.0,29.81,SE,142,1.0,9.0,89,0.00,,,0.00,,2013-04-08 16:13:00,
2013-04-08 11:23:00,62.0,59.0,29.81,East,79,4.0,8.0,89,0.00,,,0.00,,2013-04-08 16:23:00,
2013-04-08 11:32:00,62.0,59.0,29.81,East,79,4.0,8.0,89,0.00,,,0.00,,2013-04-08 16:32:00,
2013-04-08 11:42:00,62.0,59.0,29.80,East,94,2.0,7.0,89,0.00,,,0.00,,2013-04-08 16:42:00,
2013-04-08 11:53:00,62.0,59.0,29.80,ESE,114,3.0,9.0,89,0.00,,,0.00,,2013-04-08 16:53:00,
2013-04-08 12:03:00,63.0,60.0,29.80,East,97,1.0,5.0,89,0.00,,,0.00,,2013-04-08 17:03:00,
2013-04-08 12:12:00,63.0,59.0,29.79,East,98,3.0,10.0,88,0.00,,,0.00,,2013-04-08 17:12:00,
2013-04-08 12:22:00,63.0,59.0,29.79,East,98,3.0,10.0,88,0.00,,,0.00,,2013-04-08 17:22:00,
2013-04-08 12:32:00,63.0,59.0,29.78,SSW,211,3.0,7.0,88,0.00,,,0.00,,2013-04-08 17:32:00,
2013-04-08 12:43:00,63.0,59.0,29.78,SSW,211,3.0,7.0,88,0.00,,,0.00,,2013-04-08 17:43:00,
2013-04-08 12:52:00,63.0,59.0,29.78,South,170,3.0,12.0,88,0.00,,,0.00,,2013-04-08 17:52:00,
2013-04-08 13:02:00,64.0,60.0,29.78,SE,131,3.0,10.0,87,0.00,,,0.00,,2013-04-08 18:02:00,
2013-04-08 13:12:00,64.0,60.0,29.78,SE,131,3.0,10.0,87,0.00,,,0.00,,2013-04-08 18:12:00,
2013-04-08 13:22:00,65.0,61.0,29.77,East,92,4.0,12.0,86,0.00,,,0.00,,2013-04-08 18:22:00,
2013-04-08 13:32:00,65.0,60.0,29.77,SE,136,3.0,10.0,85,0.00,,,0.00,,2013-04-08 18:32:00,
2013-04-08 13:42:00,65.0,60.0,29.76,East,93,3.0,10.0,85,0.00,,,0.00,,2013-04-08 18:42:00,
2013-04-08 13:52:00,65.0,60.0,29.76,East,93,3.0,10.0,85,0.00,,,0.00,,2013-04-08 18:52:00,
2013-04-08 14:02:00,66.0,61.0,29.75,South,182,2.0,7.0,83,0.00,,,0.00,,2013-04-08 19:02:00,
2013-04-08 14:12:00,66.0,61.0,29.75,South,182,2.0,7.0,83,0.00,,,0.00,,2013-04-08 19:12:00,
2013-04-08 14:23:00,67.0,61.0,29.75,ENE,77,2.0,8.0,81,0.00,,,0.00,,2013-04-08 19:23:00,
2013-04-08 14:33:00,69.0,62.0,29.74,SSE,165,3.0,9.0,78,0.00,,,0.00,,2013-04-08 19:33:00,
2013-04-08 14:42:00,69.0,61.0,29.74,SSE,152,3.0,13.0,76,0.00,,,0.00,,2013-04-08 19:42:00,
2013-04-08 14:52:00,69.0,61.0,29.74,SSE,152,3.0,13.0,76,0.00,,,0.00,,2013-04-08 19:52:00,
2013-04-08 15:02:00,71.0,62.0,29.73,SSE,167,5.0,11.0,73,0.00,,,0.00,,2013-04-08 20:02:00,
2013-04-08 15:12:00,72.0,62.0,29.72,SE,126,7.0,15.0,71,0.00,,,0.00,,2013-04-08 20:12:00,
2013-04-08 15:22:00,72.0,62.0,29.72,SE,126,7.0,15.0,71,0.00,,,0.00,,2013-04-08 20:22:00,
2013-04-08 15:33:00,72.0,62.0,29.71,SSW,198,3.0,11.0,71,0.00,,,0.00,,2013-04-08 20:33:00,
2013-04-08 15:43:00,72.0,62.0,29.71,SSW,198,3.0,11.0,71,0.00,,,0.00,,2013-04-08 20:43:00,
2013-04-08 15:52:00,72.0,62.0,29.71,East,81,5.0,11.0,70,0.00,,,0.00,,2013-04-08 20:52:00,
2013-04-08 16:02:00,72.0,62.0,29.70,South,169,4.0,11.0,71,0.00,,,0.00,,2013-04-08 21:02:00,
2013-04-08 16:12:00,73.0,62.0,29.70,South,181,6.0,14.0,69,0.00,,,0.00,,2013-04-08 21:12:00,
2013-04-08 16:22:00,73.0,62.0,29.70,South,181,6.0,14.0,69,0.00,,,0.00,,2013-04-08 21:22:00,
2013-04-08 16:32:00,74.0,63.0,29.69,ESE,117,3.0,19.0,68,0.00,,,0.00,,2013-04-08 21:32:00,
2013-04-08 16:43:00,74.0,63.0,29.69,ESE,117,3.0,19.0,68,0.00,,,0.00,,2013-04-08 21:43:00,
2013-04-08 16:52:00,74.0,62.0,29.69,South,184,3.0,11.0,66,0.00,,,0.00,,2013-04-08 21:52:00,
2013-04-08 17:03:00,74.0,62.0,29.69,SE,136,3.0,14.0,67,0.00,,,0.00,,2013-04-08 22:03:00,
2013-04-08 17:13:00,74.0,62.0,29.69,SE,136,3.0,14.0,67,0.00,,,0.00,,2013-04-08 22:13:00,
2013-04-08 17:22:00,74.0,62.0,29.68,South,188,4.0,14.0,66,0.00,,,0.00,,2013-04-08 22:22:00,
2013-04-08 17:32:00,74.0,62.0,29.68,South,188,4.0,14.0,66,0.00,,,0.00,,2013-04-08 22:32:00,
2013-04-08 17:43:00,74.0,62.0,29.68,South,174,4.0,18.0,67,0.00,,,0.00,,2013-04-08 22:43:00,
2013-04-08 17:52:00,74.0,62.0,29.68,ESE,107,5.0,14.0,66,0.00,,,0.00,,2013-04-08 22:52:00,
2013-04-08 18:02:00,74.0,62.0,29.69,South,172,1.0,15.0,67,0.00,,,0.00,,2013-04-08 23:02:00,
2013-04-08 18:12:00,74.0,62.0,29.69,South,172,1.0,15.0,67,0.00,,,0.00,,2013-04-08 23:12:00,
2013-04-08 18:22:00,74.0,62.0,29.69,South,172,1.0,15.0,67,0.00,,,0.00,,2013-04-08 23:22:00,
2013-04-08 18:32:00,74.0,62.0,29.70,SSE,160,5.0,15.0,66,0.00,,,0.00,,2013-04-08 23:32:00,
2013-04-08 18:42:00,74.0,62.0,29.70,SSE,160,5.0,15.0,66,0.00,,,0.00,,2013-04-08 23:42:00,
2013-04-08 18:52:00,74.0,62.0,29.69,SSE,162,3.0,11.0,66,0.00,,,0.00,,2013-04-08 23:52:00,
2013-04-08 19:02:00,74.0,62.0,29.69,East,83,3.0,11.0,66,0.00,,,0.00,,2013-04-09 00:02:00,
2013-04-08 19:12:00,74.0,62.0,29.69,East,83,3.0,11.0,66,0.00,,,0.00,,2013-04-09 00:12:00,
2013-04-08 19:22:00,74.0,62.0,29.70,South,169,7.0,14.0,66,0.00,,,0.00,,2013-04-09 00:22:00,
2013-04-08 19:32:00,74.0,62.0,29.69,SSE,162,2.0,10.0,66,0.00,,,0.00,,2013-04-09 00:32:00,
2013-04-08 19:42:00,74.0,62.0,29.69,SSE,162,2.0,10.0,66,0.00,,,0.00,,2013-04-09 00:42:00,
2013-04-08 19:52:00,73.0,61.0,29.70,SSW,195,3.0,12.0,67,0.00,,,0.00,,2013-04-09 00:52:00,
2013-04-08 20:02:00,73.0,61.0,29.70,East,94,3.0,12.0,67,0.00,,,0.00,,2013-04-09 01:02:00,
2013-04-08 20:12:00,73.0,61.0,29.70,East,94,3.0,12.0,67,0.00,,,0.00,,2013-04-09 01:12:00,
2013-04-08 20:22:00,73.0,62.0,29.70,SE,136,5.0,15.0,68,0.00,,,0.00,,2013-04-09 01:22:00,
2013-04-08 20:33:00,72.0,61.0,29.70,SE,146,4.0,10.0,68,0.00,,,0.00,,2013-04-09 01:33:00,
2013-04-08 20:42:00,72.0,61.0,29.70,SE,124,2.0,7.0,69,0.00,,,0.00,,2013-04-09 01:42:00,
2013-04-08 20:52:00,72.0,61.0,29.70,SE,124,2.0,7.0,69,0.00,,,0.00,,2013-04-09 01:52:00,
2013-04-08 21:02:00,72.0,62.0,29.70,WSW,238,2.0,7.0,70,0.00,,,0.00,,2013-04-09 02:02:00,
2013-04-08 21:12:00,72.0,62.0,29.70,WSW,238,2.0,7.0,70,0.00,,,0.00,,2013-04-09 02:12:00,
2013-04-08 21:22:00,71.0,61.0,29.70,ESE,114,2.0,7.0,71,0.00,,,0.00,,2013-04-09 02:22:00,
2013-04-08 21:32:00,71.0,61.0,29.70,SSE,148,4.0,10.0,71,0.00,,,0.00,,2013-04-09 02:32:00,
2013-04-08 21:43:00,71.0,61.0,29.71,SE,136,3.0,10.0,70,0.00,,,0.00,,2013-04-09 02:43:00,
2013-04-08 21:52:00,71.0,61.0,29.71,SE,136,3.0,10.0,70,0.00,,,0.00,,2013-04-09 02:52:00,
2013-04-08 22:02:00,72.0,62.0,29.71,SW,225,4.0,14.0,70,0.00,,,0.00,,2013-04-09 03:02:00,
2013-04-08 22:12:00,72.0,62.0,29.71,SW,225,4.0,14.0,70,0.00,,,0.00,,2013-04-09 03:12:00,
2013-04-08 22:21:00,72.0,62.0,29.72,SW,236,3.0,10.0,70,0.00,,,0.00,,2013-04-09 03:21:00,
2013-04-08 22:33:00,72.0,62.0,29.72,East,96,2.0,9.0,70,0.00,,,0.00,,2013-04-09 03:33:00,
2013-04-08 22:43:00,72.0,62.0,29.72,East,96,2.0,9.0,70,0.00,,,0.00,,2013-04-09 03:43:00,
2013-04-08 22:52:00,72.0,62.0,29.71,SE,132,2.0,11.0,70,0.00,,,0.00,,2013-04-09 03:52:00,
2013-04-08 23:03:00,72.0,62.0,29.71,SE,144,1.0,10.0,70,0.00,,,0.00,,2013-04-09 04:03:00,
2013-04-08 23:13:00,72.0,62.0,29.71,SE,144,1.0,10.0,70,0.00,,,0.00,,2013-04-09 04:13:00,
2013-04-08 23:23:00,72.0,62.0,29.71,SSE,164,1.0,11.0,70,0.00,,,0.00,,2013-04-09 04:23:00,
2013-04-08 23:32:00,72.0,62.0,29.71,SSE,164,1.0,11.0,70,0.00,,,0.00,,2013-04-09 04:32:00,
2013-04-08 23:42:00,72.0,62.0,29.71,SSE,164,1.0,11.0,70,0.00,,,0.00,,2013-04-09 04:42:00,
2013-04-08 23:52:00,72.0,62.0,29.71,SSE,164,1.0,11.0,70,0.00,,,0.00,,2013-04-09 04:52:00,